Showing default

FLOCK 4BE 34, 60495

Orbit data source: Space-Track

FLOCK 4BE 34, 60495 is a payload satellite owned by Planet (US) in SSO that was launched on Fri, 16 Aug 2024 UTC via an FALCON 9 launch vehicle from the Air Force Western Test Range (AFWTR). Payload-class satellites include a variety of spacecraft equipped with specific instruments for various scientific and technological missions. These include communications satellites like Starlink; space stations such as the ISS; scientific satellites like the Hubble; Earth observation satellites from companies like Planet Labs, Umbra, and HawkEye 360; GPS; miniature CubeSats for education and research; and military/defense satellites.

Loading next visibility...
Identifier
60495, 2024-149AD
Orbit
SSO
Last TLE update
15 hours ago
Origin
Manufacturer
Planet
Mission
Operational Commercial Imaging
Bus & Motor
CUBESAT 3U, Unknown motor
Mass
5.7 kg wet, 5.7 kg dry
Launch date (UTC)
2024-08-16 (11 months ago)
Launch vehicle
FALCON 9
Launch site
Air Force Western Test Range (AFWTR)
Object type
Payload
Rocket body
Debris
Shape & HBR
Box + 2 Pan, 0.3 m
Radar Cross Section
0.035 m², Medium (>0.1 m² and < 1m²)

Expand to show TLE details & history

TLE from 15 hours ago
0 FLOCK 4BE 34
1 60495U 24149AD  25188.20957251  .00008905  00000-0  31424-3 0  9998
2 60495  97.4107 266.6106 0006016  76.7636 283.4275 15.29457433 49400
Epoch: 2025-07-07T05:01Z
TLE epoch observation values (Epoch: 2025-07-07T05:01:47.064Z)
Latitude
-0.00005°
Longitude
-94.25769°
Altitude
479.581 km
Speed
7.626 km/s
True Right ascension
17h 46m 26s
True Declination
0° 00' 00"
Sunlit
Object was in full shadow at epoch
Visualization orbit readout
Latitude
-56.60232°
Longitude
-82.30193°
Altitude
502.118 km
Speed
7.61 km/s
Apparent Right ascension
19h 41m 09s
Apparent Declination
-49° 20' 23"
Sunlit
Object is in full shadow
Visualization observer readout
Local Sidereal Time
08:32:40
Azimuth
140.187° SSE
Elevation
-76.888°
Doppler factor
1
Orbital elements
Apogee altitude
478.509 km
Perigee altitude
470.264 km
Semi-major axis
6,852.524 km
Eccentricity
0.0006
Inclination
97.4107°
RAAN
266.6106°
Arg. of periapsis
76.7636°
True anomaly
Unknown
Mean anomaly
283.4275°
Eccentric anomaly
Unknown
Mean motion
3.8262 °/min
Orbital period
94.09 mins
BSTAR
0.00031424
Loading maneuver chart data...
Loading SW <> Apogee altitude chart data...
Loading historical data...
Loading historical data...
Loading historical data...
Loading historical data...
Loading historical data...
Loading historical data...
Loading historical data...

FLOCK 4BE 34 Visibility forecast

Observer location: undefined°, undefined°

Span
Click to sort rows by Start time (UTC) header in descending order
Start Az.
Max El. time (UTC)
Max El. Az.
Max El.
End time (UTC)
End Az.
6 mins2025-07-08 04:42:55.107Z132.893° SE2025-07-08 04:45:55.107Z71.929° E26.059°2025-07-08 04:48:55.107Z11.089° NNE
4 mins2025-07-08 17:43:55.107Z48.874° ENE2025-07-08 17:44:55.107Z79.131° E31.013°2025-07-08 17:47:55.107Z163.613° S
|